Location: Mahannah Oil Field
(37.4664°N, 96.6003°W)
Time: 11:12:21
(UTC+00:00)

Vanguard 2 - Pass Details

Date: 31 January 2021
Orbit: 552 x 2938 km, 32.9° (Epoch: 08 March)

Event Time Altitude Azimuth Distance (km) Brightness Sun altitude
Rises 02:37:40 0° 255° (WSW) 2,910 11.5 -33.6°
Reaches altitude 10° 02:42:01 10° 213° (SSW) 2,317 10.3 -34.5°
Maximum altitude 02:43:02 11° 202° (SSW) 2,370 10.2 -34.7°
Enters shadow 02:43:14 11° 200° (SSW) 2,390 10.2 -34.7°
